Location: General Nathan Twining Observatory
(34.5931°N, 106.8201°W)
Time: 07:48:46
(UTC-06:00)

Daily predictions for brighter satellites

Satellite Brightness Start Highest point End
(mag) Time Altitude Azimuth Time Altitude Azimuth Time Altitude Azimuth
NOSS 0 Rocket 4.3 20:40:28 10° NNW 20:46:32 53° ENE 20:52:35 10° SE
USA 234 3.8 20:41:48 10° ENE 20:47:43 36° SE 20:53:37 10° S
Cosmos 1821 Rocket 4.1 20:45:49 10° N 20:52:15 81° E 20:58:36 10° S
Cosmos 2333 Rocket 2.4 20:47:02 10° NNW 20:52:38 61° ENE 20:58:12 10° SSE
Cosmos 2219 Rocket 2.2 20:48:45 10° NNW 20:54:26 79° ENE 21:00:04 10° SSE
Resurs 1-3 3.8 20:50:57 10° S 20:55:19 75° WSW 20:59:42 10° NNW
CZ-4B DEB 4.3 20:53:10 10° ESE 20:55:22 19° ENE 20:57:35 10° NNE
Skynet4D Del rocket 4.4 20:52:40 10° WSW 20:58:06 41° S 21:04:14 10° ESE
SEDSat Delta rocket 3.4 20:54:04 10° W 20:58:25 46° SSW 21:02:23 10° ESE
Cosmos 1184 Rocket 4.0 20:56:24 10° SSE 20:59:09 24° E 21:01:56 10° NE
Cosmos 676 Rocket 4.0 20:54:53 10° S 21:00:07 76° ESE 21:05:20 10° NNE
Spot 2 Rocket 3.8 20:56:15 10° S 21:01:15 70° WSW 21:06:19 10° NNW
ATLAS 2AS CENTAUR R/B 3.9 20:59:25 10° NW 21:06:44 44° WSW 21:13:27 10° S
Cosmos 1934 Rocket 4.0 21:02:01 10° N 21:08:13 83° E 21:14:17 10° S
Cosmos 1939 Rocket 3.0 21:05:07 10° SSE 21:08:59 56° ENE 21:12:56 10° N
NOSS 3-4 (A) 4.4 21:03:15 10° NNW 21:10:01 45° NE 21:16:44 12° ESE
NOSS 3-4 (C) 4.4 21:03:21 10° NNW 21:10:07 45° NE 21:16:48 12° ESE
SL-24 DEB 4.4 21:05:30 10° S 21:10:13 80° W 21:15:01 10° N
DELTA 2 R/B (1) 4.1 21:07:54 10° WNW 21:13:19 50° SSW 21:18:12 12° SE
CZ-4B DEB 4.5 21:10:08 10° SSE 21:13:40 81° ENE 21:17:14 10° N
Aureole 2 Rocket 2.8 21:10:28 10° NNW 21:14:31 67° ENE 21:18:06 11° SSE
SL-19 R/B 4.4 21:09:32 10° SSE 21:15:22 89° ENE 21:20:59 10° NNW
Cosmos 2082 3.8 21:09:50 10° SSW 21:15:26 84° WNW 21:21:06 10° NNE
Cosmos 1605 Rocket 4.1 21:10:29 10° N 21:16:43 66° E 21:22:59 10° SSE
Meteor 1-29 2.9 21:16:37 10° NNE 21:20:02 69° ESE 21:23:27 10° S
Cosmos 2084 4.0 21:17:10 10° S 21:20:48 31° ESE 21:24:17 10° NE
Cosmos 2297 Rocket 2.4 21:17:23 10° SSW 21:23:01 78° WNW 21:28:42 10° NNE
Cosmos 1842 Rocket 3.5 21:18:40 10° N 21:23:03 70° E 21:27:20 10° SSE
Helios 1A 2.9 21:19:20 10° SSE 21:23:28 85° ENE 21:27:37 10° N
Cosmos 1340 Rocket 2.9 21:19:53 10° S 21:23:46 54° E 21:27:44 10° NNE
OAO 3 Rocket 4.1 21:19:53 10° W 21:24:06 34° SSW 21:27:23 15° SSE
Envisat 3.3 21:20:37 10° S 21:25:40 71° WSW 21:30:45 10° NNW
Meteor 2-15 Rocket 4.4 21:22:45 10° S 21:28:47 72° E 21:34:49 10° N
Cosmos 1242 Rocket 4.5 21:26:41 10° NE 21:29:02 16° ENE 21:30:10 14° E
Helios 1B rocket 2.8 21:25:42 10° N 21:29:49 68° WNW 21:33:55 10° SSW
Cosmos 1727 Rocket 4.0 21:24:11 10° S 21:30:27 82° E 21:36:49 10° N
USA 32 4.0 21:28:16 10° S 21:33:28 73° E 21:38:42 10° N
Cosmos 1140 Rocket 3.8 21:34:49 10° SSW 21:39:57 68° WNW 21:45:06 10° NNE
Lacrosse 4 Rocket 3.9 21:40:25 10° WSW 21:43:55 25° WNW 21:47:32 10° N
Cosmos 1980 4.0 21:38:49 10° NNW 21:44:27 64° WSW 21:49:23 13° S
Tiangong 1 3.0 21:42:45 10° W 21:45:11 26° NNW 21:47:37 10° NE
Cosmos 1867 3.6 21:40:46 10° SSW 21:46:03 56° ESE 21:51:23 10° NE
ATLAS 5 CENTAUR R/B 1.6 21:42:38 10° SSW 21:47:12 89° ESE 21:52:08 10° NNE
Atlas Centaur 2 1.4 21:48:03 10° WSW 21:51:26 41° S 21:52:24 33° SE
YAOGAN 6 3.0 21:48:46 16° S 21:51:28 58° W 21:55:05 10° NNW
Cosmos 1726 4.1 21:52:06 10° NE 21:54:08 14° ENE 21:54:09 14° ENE
Cosmos 2237 Rocket 2.7 21:49:36 10° NNW 21:55:05 55° WSW 21:59:35 15° S
Cosmos 1076 Rocket 3.5 21:53:12 22° SSE 21:55:54 61° E 22:00:13 10° NNE
Okean 3 Rocket 3.6 21:54:22 12° S 21:58:35 86° W 22:03:05 10° N
SL-08 RB Rocket 4.3 22:02:13 30° ESE 22:03:50 42° ENE 22:08:09 10° N
SL-8 R/B 3.9 21:59:23 10° WNW 22:04:05 58° SW 22:06:06 32° SSE
Cosmos 1356 Rocket 3.3 22:01:47 25° S 22:04:09 72° E 22:08:25 10° NNE
Cosmos 1908 3.3 22:02:15 10° N 22:06:07 60° E 22:07:09 42° SE
Cosmos 2227 Rocket 4.5 22:01:53 10° WSW 22:06:30 26° WNW 22:11:09 10° N
Cosmos 1674 2.5 22:04:38 28° S 22:06:34 88° E 22:10:21 10° N
Cosmos 1850 Rocket 4.3 22:02:38 10° SSW 22:07:45 67° WNW 22:12:55 10° NNE
Cosmos 2221 2.5 22:05:42 10° N 22:10:05 83° W 22:12:14 30° S
YAOGAN 11 4.2 22:12:05 38° SE 22:13:40 65° ENE 22:18:10 10° N
KORONAS-FOTON 3.7 22:13:00 47° SSE 22:13:57 68° E 22:17:44 10° NNE
H-2A R/B 2.6 22:12:35 32° ESE 22:14:32 45° ENE 22:19:39 10° N
OAO 1 Rocket 4.3 22:10:53 10° WSW 22:16:15 76° SSE 22:20:01 20° E
SL-16 R/B 2.1 22:12:14 10° NNW 22:17:55 90° WSW 22:20:31 34° SSE
USA 245 2.6 22:20:18 73° E 22:20:20 73° ENE 22:23:56 10° N
Cosmos 1766 Rocket 3.4 22:18:58 40° S 22:20:29 78° E 22:24:50 10° N
SPOT 5 2.8 22:19:00 39° SSE 22:20:44 76° ENE 22:25:43 10° N
ARGOS 3.1 22:20:37 33° SSE 22:23:10 88° ENE 22:28:37 10° NNW
ERS-1 Rocket 3.6 22:21:41 22° SSW 22:24:45 50° W 22:29:39 10° NNW
Cosmos 1818 3.5 22:20:36 10° NNW 22:26:03 73° ENE 22:27:52 42° SE
MetOp-A 4.4 22:24:40 27° S 22:27:34 64° WSW 22:32:54 10° NNW
Lacrosse 5 3.7 22:23:55 10° NNW 22:27:49 22° NE 22:30:17 16° ENE
Cosmos 2228 Rocket 4.1 22:25:07 10° NNE 22:29:15 32° ENE 22:29:26 32° E
USA 234 4.0 22:24:27 10° NE 22:30:47 54° NW 22:37:06 10° WSW
Cosmos 1328 Rocket 4.2 22:29:50 10° N 22:33:52 38° ENE 22:33:52 38° ENE
MINOTAUR IV R/B 4.5 22:33:55 43° SSW 22:35:24 86° ESE 22:39:57 10° NNE
RESURS DK-1 3.7 22:32:49 10° N 22:36:25 28° ENE 22:36:33 27° ENE
Cosmos 1743 Rocket 3.8 22:37:15 49° E 22:37:15 49° E 22:41:17 10° NNE
H-2A R/B 3.4 22:37:38 25° ENE 22:37:38 25° ENE 22:41:08 10° NNE
Cosmos 371 Rocket 4.3 22:38:21 10° N 22:42:40 32° ENE 22:43:02 31° ENE
Cosmos 2061 Rocket 4.2 22:36:27 10° N 22:42:48 72° W 22:45:58 32° S
Sakura Rocket 3.9 22:37:22 10° WSW 22:44:16 48° S 22:44:39 47° SSE
Cosmos 2100 Rocket 4.5 22:38:33 10° NNW 22:44:43 57° W 22:48:19 25° SSW
DMSP B5D2-2 3.9 22:41:52 10° NNE 22:47:07 79° ESE 22:48:24 52° S
Cosmos 1459 Rocket 4.4 22:41:10 10° NNW 22:47:19 58° W 22:50:34 28° SSW
Cosmos 2227 4.4 22:42:48 16° SSW 22:47:29 71° WNW 22:53:12 10° NNE
Meteor 2-2 Rocket 4.3 22:42:42 10° N 22:48:30 71° E 22:49:52 52° SE
Cosmos 1151 Rocket 4.2 22:45:31 10° NNE 22:48:52 30° ENE 22:48:52 30° ENE
Cosmos 2123 Rocket 3.9 22:50:05 38° S 22:52:41 86° W 22:58:54 10° N
Milstar 3 Cent rocket 4.2 22:44:34 10° W 22:52:57 51° S 23:00:08 32° SE
SL-14 R/B 3.3 22:54:42 77° NNW 22:54:42 77° NNW 22:58:26 10° N
CZ-4B R/B 4.5 22:49:56 10° NNE 22:54:00 33° E 22:54:00 33° E
Landsat 7 3.6 22:55:27 73° SE 22:55:52 83° ENE 23:00:38 10° N
Cosmos 1328 3.9 22:57:53 74° NW 22:57:53 74° NW 23:01:43 10° N
EO 1 Delta rocket 4.1 22:58:39 52° SSW 22:59:36 64° W 23:04:11 10° NNW
IGS 5A 3.8 23:03:14 55° NE 23:03:14 55° NE 23:06:48 10° N
Cosmos 1242 Rocket 4.5 23:00:57 10° NW 23:03:57 24° W 23:04:19 23° WSW
CZ-4 R/B 4.2 23:01:31 10° NNE 23:05:38 50° ENE 23:05:38 50° ENE
SPOT 1/Viking Rocket 4.1 23:08:16 41° SW 23:09:21 48° W 23:14:19 10° NNW
SL-19 R/B 4.0 23:04:31 10° NNE 23:09:53 79° ESE 23:10:28 70° SSE
Terra 1.7 23:10:53 81° ENE 23:10:53 81° ENE 23:15:35 10° N
Cosmos 1486 Rocket 3.9 23:13:32 73° SSW 23:14:03 85° WNW 23:19:23 10° NNE
Cosmos 1814 Rocket 3.9 23:09:40 10° NNW 23:15:02 76° ENE 23:15:12 75° E
Cosmos 1300 3.6 23:11:45 10° NNW 23:14:45 46° NW 23:14:45 46° NW
Cosmos 1626 3.9 23:20:51 28° NNE 23:20:51 28° NNE 23:22:45 10° NNE
CZ-4C R/B 4.4 23:22:54 10° ENE 23:22:54 10° ENE 23:23:03 10° ENE
Cosmos 1725 Rocket 4.2 23:13:53 10° NNW 23:20:05 66° W 23:21:33 50° SSW
Cosmos 2263 Rocket 2.0 23:20:31 74° E 23:20:31 74° E 23:25:58 10° NNE
Tiangong 1 4.2 23:19:38 10° NW 23:20:29 13° NNW 23:20:29 13° NNW
deb Chang Zheng 4 3.9 23:20:47 10° N 23:24:29 62° N 23:24:29 62° N
Cosmos 1726 4.1 23:26:23 10° NW 23:28:46 24° WNW 23:28:46 24° WNW
Cosmos 841 Rocket 3.7 23:25:11 10° N 23:30:03 61° NE 23:30:03 61° NE
Spot 4 4.2 23:31:35 59° NE 23:31:35 59° NE 23:35:51 10° N
Cosmos 332 Rocket 4.2 23:26:55 10° NNW 23:31:24 58° W 23:31:24 58° W
Cosmos 1763 Rocket 3.5 23:29:34 10° NNW 23:34:14 75° NNW 23:34:14 75° NNW
Cosmos 1603 4.3 23:39:19 10° NW 23:44:42 46° WSW 23:44:42 46° WSW
Cosmos 1464 Rocket 4.4 23:38:59 10° N 23:44:51 49° ENE 23:44:51 49° ENE
Cosmos 2058 4.3 23:48:12 37° NW 23:48:12 37° NW 23:51:20 10° N
Cosmos 1455 4.1 23:46:00 10° N 23:47:56 28° N 23:47:56 28° N
H-2A R/B 4.0 23:53:13 18° WSW 23:54:07 19° W 23:57:48 10° NW
